Location: Biłgoraj
(50.5411°N, 22.7220°E)
Time: 23:30:46
(UTC+02:00)

ISS - Visible Passes

Search period start: 22 September 2018 00:00
Search period end: 02 October 2018 00:00
Orbit: 403 x 408 km, 51.6° (Epoch: 23 September)

Date Brightness Start Highest point End Pass type
(mag) Time Alt. Az. Time Alt. Az. Time Alt. Az.
22 Sep -1.6 20:28:00 10° SSW 20:28:53 16° SSW 20:28:53 16° SSW visible
23 Sep -2.3 19:36:45 10° SSW 19:39:15 20° SE 19:39:38 19° SE visible
23 Sep -0.8 21:12:05 10° WSW 21:12:21 12° WSW 21:12:21 12° WSW visible
24 Sep -3.2 20:20:18 10° SW 20:22:54 44° SSW 20:22:54 44° SSW visible
25 Sep -3.1 19:28:40 10° SW 19:31:43 35° SSE 19:33:18 22° E visible
25 Sep -1.4 21:04:46 10° W 21:05:59 21° W 21:05:59 21° W visible
26 Sep -4.0 20:12:51 10° WSW 20:16:09 82° SSE 20:16:15 79° SE visible
27 Sep -3.7 19:20:59 10° WSW 19:24:15 60° SSE 19:26:26 19° E visible
27 Sep -1.7 20:57:28 10° W 20:59:06 27° W 20:59:06 27° W visible
28 Sep -3.8 20:05:28 10° W 20:08:47 77° N 20:09:12 64° NE visible
29 Sep -3.8 19:13:30 10° WSW 19:16:49 89° S 19:19:14 17° ENE visible
29 Sep -1.8 20:50:07 10° W 20:51:54 29° WNW 20:51:54 29° WNW visible
30 Sep -3.7 19:58:06 10° W 20:01:25 70° N 20:01:54 57° NE visible
01 Oct -3.7 19:06:05 10° W 19:09:23 74° N 19:11:53 16° ENE visible
01 Oct -1.9 20:42:41 10° WNW 20:44:32 31° WNW 20:44:32 31° WNW visible
